• In Deutschland
  • Länderverzeichnis
  • Für 7 Tage
  • Wassertemperatur
  • Satellitenkarten
  • Wetterkarte
  • Widgets
  • user-avatar
    Anmelden

    Stündliche Wetter Tirana

    Heute, 26 April, Donnerstag

    Zeit Temperatur Niederschläge Wind Luftdruck Luftfeuchtigkeit
    00:00 +19°C° 0 mm 1 m/S 754 mmHg 67%
    01:00 +18°C° 0 mm 1 m/S 754 mmHg 64%
    02:00 +18°C° 0 mm 1 m/S 753 mmHg 62%
    03:00 +18°C° 0 mm 1 m/S 753 mmHg 59%
    04:00 +18°C° 0 mm 1 m/S 753 mmHg 57%
    05:00 +19°C° 0 mm 1 m/S 753 mmHg 54%
    06:00 +21°C° 0 mm 1 m/S 753 mmHg 51%
    07:00 +23°C° 0 mm 1 m/S 753 mmHg 48%
    08:00 +24°C° 0 mm 1 m/S 753 mmHg 44%
    09:00 +26°C° 0 mm 1 m/S 753 mmHg 41%
    10:00 +27°C° 0 mm 1 m/S 753 mmHg 37%
    11:00 +28°C° 0 mm 2 m/S 752 mmHg 38%
    12:00 +28°C° 0 mm 2 m/S 752 mmHg 38%
    13:00 +28°C° 0 mm 3 m/S 752 mmHg 38%
    14:00 +28°C° 0 mm 2 m/S 751 mmHg 41%
    15:00 +27°C° 0 mm 2 m/S 751 mmHg 44%
    16:00 +27°C° 0 mm 2 m/S 751 mmHg 46%
    17:00 +25°C° 0 mm 2 m/S 751 mmHg 54%
    18:00 +23°C° 0 mm 1 m/S 751 mmHg 61%
    19:00 +19°C° 0 mm 0 m/S 751 mmHg 69%
    20:00 +18°C° 0 mm 0 m/S 751 mmHg 69%
    21:00 +18°C° 0 mm 0 m/S 751 mmHg 69%
    22:00 +17°C° 0 mm 0 m/S 752 mmHg 70%
    23:00 +17°C° 0 mm 0 m/S 752 mmHg 69%

    Morgen, 27 April, Freitag

    Zeit Temperatur Niederschläge Wind Luftdruck Luftfeuchtigkeit
    00:00 +19°C° 0 mm 1 m/S 752 mmHg 68%
    01:00 +19°C° 0 mm 1 m/S 752 mmHg 67%
    02:00 +18°C° 0 mm 1 m/S 752 mmHg 66%
    03:00 +18°C° 0 mm 1 m/S 751 mmHg 64%
    04:00 +18°C° 0 mm 1 m/S 751 mmHg 63%
    05:00 +20°C° 0 mm 1 m/S 752 mmHg 60%
    06:00 +21°C° 0 mm 1 m/S 752 mmHg 58%
    07:00 +23°C° 0 mm 1 m/S 752 mmHg 56%
    08:00 +25°C° 0 mm 2 m/S 752 mmHg 51%
    09:00 +27°C° 0 mm 2 m/S 752 mmHg 46%
    10:00 +29°C° 0 mm 2 m/S 752 mmHg 41%
    11:00 +30°C° 0 mm 2 m/S 752 mmHg 39%
    12:00 +31°C° 0 mm 3 m/S 752 mmHg 38%
    13:00 +33°C° 0 mm 3 m/S 752 mmHg 37%
    14:00 +31°C° 0 mm 3 m/S 751 mmHg 40%
    15:00 +30°C° 0 mm 3 m/S 751 mmHg 44%
    16:00 +29°C° 0 mm 3 m/S 751 mmHg 47%
    17:00 +27°C° 0,1 mm 2 m/S 751 mmHg 54%
    18:00 +25°C° 0,1 mm 2 m/S 751 mmHg 61%
    19:00 +23°C° 0,1 mm 1 m/S 752 mmHg 67%
    20:00 +23°C° 0,3 mm 1 m/S 752 mmHg 68%
    21:00 +22°C° 0,3 mm 1 m/S 752 mmHg 70%
    22:00 +22°C° 0,3 mm 1 m/S 753 mmHg 71%
    23:00 +20°C° 0,4 mm 2 m/S 753 mmHg 72%

    übermorgen, 28 April, Samstag

    Zeit Temperatur Niederschläge Wind Luftdruck Luftfeuchtigkeit
    00:00 +20°C° 0,4 mm 2 m/S 753 mmHg 72%
    01:00 +20°C° 0,4 mm 2 m/S 753 mmHg 73%
    02:00 +19°C° 0,2 mm 2 m/S 753 mmHg 73%
    03:00 +19°C° 0,2 mm 2 m/S 752 mmHg 74%
    04:00 +19°C° 0,2 mm 2 m/S 752 mmHg 74%
    05:00 +20°C° 0 mm 2 m/S 752 mmHg 70%
    06:00 +21°C° 0 mm 2 m/S 752 mmHg 67%
    07:00 +24°C° 0 mm 1 m/S 753 mmHg 63%
    08:00 +26°C° 0 mm 1 m/S 753 mmHg 55%
    09:00 +27°C° 0 mm 1 m/S 752 mmHg 46%
    10:00 +29°C° 0 mm 2 m/S 752 mmHg 37%
    11:00 +30°C° 0 mm 2 m/S 752 mmHg 36%
    12:00 +30°C° 0 mm 2 m/S 752 mmHg 35%
    13:00 +31°C° 0 mm 3 m/S 752 mmHg 34%
    14:00 +30°C° 0 mm 3 m/S 751 mmHg 37%
    15:00 +30°C° 0 mm 3 m/S 751 mmHg 41%
    16:00 +29°C° 0 mm 3 m/S 751 mmHg 44%
    17:00 +27°C° 0 mm 3 m/S 751 mmHg 51%
    18:00 +26°C° 0 mm 2 m/S 751 mmHg 58%
    19:00 +24°C° 0 mm 2 m/S 751 mmHg 64%
    20:00 +23°C° 0,1 mm 2 m/S 751 mmHg 65%
    21:00 +23°C° 0,1 mm 2 m/S 752 mmHg 66%
    22:00 +21°C° 0,1 mm 2 m/S 752 mmHg 67%
    23:00 +21°C° 0 mm 2 m/S 752 mmHg 68%

    29 April, Sonntag

    Zeit Temperatur Niederschläge Wind Luftdruck Luftfeuchtigkeit
    00:00 +20°C° 0 mm 2 m/S 752 mmHg 69%
    01:00 +20°C° 0 mm 3 m/S 751 mmHg 69%
    02:00 +19°C° 0 mm 3 m/S 751 mmHg 69%
    03:00 +19°C° 0 mm 3 m/S 751 mmHg 69%
    04:00 +18°C° 0 mm 3 m/S 751 mmHg 68%
    05:00 +19°C° 0 mm 3 m/S 751 mmHg 66%
    06:00 +21°C° 0 mm 2 m/S 751 mmHg 63%
    07:00 +23°C° 0 mm 2 m/S 751 mmHg 60%
    08:00 +25°C° 0 mm 2 m/S 751 mmHg 52%
    09:00 +27°C° 0 mm 2 m/S 751 mmHg 44%
    10:00 +29°C° 0 mm 2 m/S 751 mmHg 36%
    11:00 +30°C° 0 mm 2 m/S 751 mmHg 35%
    12:00 +30°C° 0 mm 3 m/S 750 mmHg 33%
    13:00 +31°C° 0 mm 3 m/S 750 mmHg 31%
    14:00 +30°C° 0 mm 3 m/S 750 mmHg 34%
    15:00 +30°C° 0 mm 3 m/S 749 mmHg 36%
    16:00 +29°C° 0 mm 3 m/S 749 mmHg 39%
    17:00 +27°C° 0,1 mm 3 m/S 749 mmHg 46%
    18:00 +25°C° 0,1 mm 2 m/S 750 mmHg 52%
    19:00 +23°C° 0,1 mm 2 m/S 750 mmHg 59%
    20:00 +23°C° 0 mm 1 m/S 750 mmHg 59%
    21:00 +22°C° 0 mm 1 m/S 750 mmHg 60%
    22:00 +22°C° 0 mm 1 m/S 751 mmHg 60%
    23:00 +21°C° 0 mm 1 m/S 751 mmHg 61%

    30 April, Montag

    Zeit Temperatur Niederschläge Wind Luftdruck Luftfeuchtigkeit
    00:00 +21°C° 0 mm 1 m/S 751 mmHg 63%
    01:00 +20°C° 0 mm 1 m/S 751 mmHg 64%
    02:00 +19°C° 0 mm 2 m/S 751 mmHg 64%
    03:00 +18°C° 0 mm 2 m/S 751 mmHg 64%
    04:00 +18°C° 0 mm 3 m/S 751 mmHg 65%
    05:00 +19°C° 0 mm 3 m/S 751 mmHg 61%
    06:00 +21°C° 0 mm 2 m/S 751 mmHg 58%
    07:00 +23°C° 0 mm 2 m/S 751 mmHg 54%
    08:00 +24°C° 0 mm 2 m/S 751 mmHg 52%
    09:00 +26°C° 0 mm 2 m/S 751 mmHg 49%
    10:00 +27°C° 0 mm 3 m/S 751 mmHg 47%
    11:00 +27°C° 0,3 mm 3 m/S 751 mmHg 49%
    12:00 +27°C° 0,3 mm 3 m/S 750 mmHg 51%
    13:00 +28°C° 0,3 mm 4 m/S 750 mmHg 53%
    14:00 +27°C° 0,4 mm 3 m/S 750 mmHg 56%
    15:00 +26°C° 0,4 mm 2 m/S 750 mmHg 59%
    16:00 +25°C° 0,4 mm 2 m/S 750 mmHg 62%
    17:00 +24°C° 0,1 mm 1 m/S 750 mmHg 67%
    18:00 +22°C° 0,1 mm 1 m/S 750 mmHg 72%
    19:00 +21°C° 0,1 mm 1 m/S 750 mmHg 76%
    20:00 +20°C° 0 mm 1 m/S 750 mmHg 78%
    21:00 +20°C° 0 mm 1 m/S 751 mmHg 79%
    22:00 +19°C° 0 mm 1 m/S 751 mmHg 80%
    23:00 +19°C° 0 mm 1 m/S 751 mmHg 81%

    1 Mai, Dienstag

    Zeit Temperatur Niederschläge Wind Luftdruck Luftfeuchtigkeit
    00:00 +19°C° 0 mm 1 m/S 751 mmHg 82%
    01:00 +18°C° 0 mm 1 m/S 751 mmHg 83%
    02:00 +18°C° 0 mm 1 m/S 751 mmHg 83%
    03:00 +18°C° 0 mm 1 m/S 751 mmHg 84%
    04:00 +18°C° 0 mm 1 m/S 751 mmHg 84%
    05:00 +19°C° 0 mm 1 m/S 751 mmHg 78%
    06:00 +21°C° 0 mm 1 m/S 751 mmHg 73%
    07:00 +22°C° 0 mm 1 m/S 751 mmHg 67%
    08:00 +23°C° 0 mm 1 m/S 751 mmHg 62%
    09:00 +25°C° 0 mm 2 m/S 751 mmHg 56%
    10:00 +26°C° 0 mm 2 m/S 751 mmHg 51%
    11:00 +27°C° 0 mm 3 m/S 751 mmHg 51%
    12:00 +27°C° 0 mm 3 m/S 751 mmHg 51%
    13:00 +27°C° 0 mm 4 m/S 751 mmHg 52%
    14:00 +26°C° 0,1 mm 4 m/S 751 mmHg 56%
    15:00 +26°C° 0,1 mm 4 m/S 751 mmHg 60%
    16:00 +25°C° 0,1 mm 3 m/S 751 mmHg 64%
    17:00 +22°C° 0 mm 3 m/S 751 mmHg 69%
    18:00 +21°C° 0 mm 2 m/S 751 mmHg 74%
    19:00 +19°C° 0 mm 2 m/S 751 mmHg 79%
    20:00 +20°C° 0 mm 1 m/S 751 mmHg 80%
    21:00 +20°C° 0 mm 1 m/S 751 mmHg 81%
    22:00 +19°C° 0 mm 1 m/S 751 mmHg 82%
    23:00 +19°C° 0 mm 1 m/S 751 mmHg 83%
    Mehr zeigen